Погода в Усадах

Россия / Рязанская область     54°09′07″N   42°04′28″E
темп.,
°C
ветер,
м/с
пор.,
м/с
влажн.,
%
обл.,
%
осадки,
мм/ч
давл.,
гПа
погр.,
м
17 мая, пн
пн1700:00+15в2291100 1.1 101417
03:00+15в3592100 1.8 101488
06:00+17всв24925 0.0 1014120
09:00+22вюв35745 0.0 1014401
12:00+27ююв475125 0.0 1014879
15:00+27ююв5848100 0.0 1014818
18:00+23юв4966100 0.0 1013212
21:00+18вюв497096 0.0 1013130
18 мая, вт
вт1800:00+17вюв41168100 0.0 1013167
03:00+16вюв4117176 0.0 1013163
06:00+16вюв4137350 0.0 1013227
09:00+23вюв5135923 0.0 1012559
12:00+26юв59495 0.0 1012971
15:00+27вюв610507 0.0 10111023
18:00+24вюв613605 0.0 1011395
21:00+20вюв515685 0.0 1011317
19 мая, ср
ср1900:00+19вюв515600 0.0 1010275
03:00+17вюв412625 0.0 1011229
06:00+17вюв5166553 0.0 1010339
09:00+23юв6145880 0.0 1010834
12:00+26юв7145057 0.0 10101449
15:00+25юв71358100 0.0 1009614
18:00+24вюв5126287 0.0 1009391
21:00+21в6156122 0.0 1009451
20 мая, чт
чт2000:00+20юв7156029 0.0 1009716
03:00+16вюв4117934 0.1 1009304
06:00+16вюв51088100 0.1 1009456
09:00+20юв697199 0.1 10081212
12:00+19ю587776 1.1 10091230
15:00+19ю567184 2.3 10081009
18:00+17юв3580100 2.1 1008239
21:00+13ююв389211 2.8 1009176
21 мая, пт
пт2100:00+12ю49961 0.1 1009233
03:00+11ю410978 0.1 1010285
06:00+12ю489435 0.0 1011260
09:00+16ю71380100 0.1 10111110
12:00+13ю61293100 1.6 1012813
15:00+17ююз8127794 2.6 10121388
18:00+16ююз712810 0.9 1011992
21:00+12юз412925 1.3 1013412